Flag for U.S.A. Weather past 2 weeks in St. Croix Falls, Wisconsin, U.S.A.

Now
0 °F

Sunny.


Feels Like: 0 °F
Forecast: 4 / 25 °F
Wind: No wind

Location: L O Simenstad Municipal Airport

Current Time: Mar 2, 2015 at 7:35:46 AM

Latest Report: Mar 2, 2015 at 6:55 AM


Visibility: 10 mi

Pressure: 30.48 "Hg

Humidity: 83%

Dew point: -4 °F

Location of St. Croix FallsLocation

Historic Weather in St. Croix Falls — Graph

°F

St. Croix Falls temperature yesterday

Maximum temperature yesterday: 27 °F (at 3:55 PM)
Minimum temperature yesterday: 11 °F (at 12:55 AM)
Average temperature yesterday: 20 °F

Past Weeks' High & Low Weather Summary

 TemperatureHumidityPressure
High30 °F (Feb 24, 8:35 AM)89% (Feb 24, 7:55 AM)30.77 "Hg (Feb 24, 7:55 AM)
Low-21 °F (Feb 23, 7:15 AM)29% (Feb 24, 3:15 PM)29.64 "Hg (Feb 24, 4:35 AM)
Average7 °F63%30.25 "Hg
* Reported Feb 15 6:15 AM — Mar 2 6:15 AM, St. Croix Falls, Weather by CustomWeather, © 2015

Note: Actual official high and low records may vary slightly from our data, if they occured in-between our weather recording intervals... More about our weather records

Advertising

St. Croix Falls weather history for previous 24 hours

 ConditionsComfort  
Time TempWeatherWind HumidityBarometerVisibility
6:15 AM
Mon, Mar 2
1 °FClear.No wind85%30.47 "Hg10 mi
5:55 AM2 °FClear.No wind86%30.48 "Hg10 mi
5:35 AM1 °FClear.No wind85%30.48 "Hg10 mi
5:15 AM3 °FClear.No wind85%30.48 "Hg10 mi
4:55 AM3 °FClear.No wind86%30.48 "Hg10 mi
4:35 AM3 °FClear.5 mph87%30.47 "Hg10 mi
4:15 AM5 °FClear.No wind83%30.46 "Hg10 mi
3:55 AM10 °FClear.No wind82%30.46 "Hg10 mi
3:35 AM10 °FClear.No wind79%30.45 "Hg10 mi
3:15 AM11 °FClear.5 mph79%30.45 "Hg10 mi
2:55 AM11 °FClear.6 mph79%30.45 "Hg10 mi
2:15 AM13 °FClear.6 mph77%30.46 "Hg10 mi
1:55 AM14 °FClear.7 mph75%30.46 "Hg10 mi
1:35 AM15 °FClear.7 mph75%30.45 "Hg10 mi
1:15 AM16 °FClear.8 mph74%30.44 "Hg10 mi
12:55 AM16 °FClear.8 mph73%30.43 "Hg10 mi
12:35 AM17 °FClear.7 mph69%30.41 "Hg10 mi
12:15 AM18 °FClear.12 mph68%30.41 "Hg10 mi
11:55 PM
Sun, Mar 1
19 °FPassing clouds.10 mph68%30.41 "Hg10 mi
11:15 PM20 °FOvercast.14 mph70%30.38 "Hg10 mi
10:35 PM20 °FPassing clouds.10 mph66%30.36 "Hg10 mi
10:15 PM21 °FPassing clouds.10 mph65%30.35 "Hg10 mi
9:55 PM21 °FClear.16 mph65%30.34 "Hg10 mi
9:15 PM23 °FLight snow. Passing clouds.12 mph72%30.32 "Hg10 mi
8:55 PM23 °FPassing clouds.17 mph67%30.31 "Hg10 mi
8:35 PM24 °FPassing clouds.13 mph63%30.30 "Hg10 mi
8:15 PM24 °FOvercast.10 mph61%30.30 "Hg10 mi
7:55 PM24 °FPassing clouds.8 mph59%30.29 "Hg10 mi
7:15 PM24 °FMostly cloudy.13 mph55%30.28 "Hg10 mi
6:55 PM24 °FMostly cloudy.8 mph55%30.27 "Hg10 mi
6:35 PM25 °FPartly cloudy.9 mph52%30.26 "Hg10 mi
6:15 PM23 °FPassing clouds.6 mph66%30.25 "Hg10 mi
5:55 PM24 °FOvercast.7 mph67%30.24 "Hg10 mi
5:35 PM25 °FMore clouds than sun.10 mph63%30.24 "Hg10 mi
5:15 PM26 °FMore clouds than sun.13 mph58%30.23 "Hg10 mi
4:55 PM26 °FCloudy.10 mph55%30.23 "Hg10 mi
4:35 PM26 °FMostly cloudy.15 mph53%30.24 "Hg10 mi
4:15 PM26 °FBroken clouds.18 mph51%30.24 "Hg10 mi
3:55 PM27 °FBroken clouds.15 mph49%30.23 "Hg10 mi
3:15 PM26 °FPartly sunny.12 mph48%30.23 "Hg10 mi
2:55 PM26 °FSunny.16 mph48%30.23 "Hg10 mi
2:35 PM26 °FSunny.12 mph48%30.23 "Hg10 mi
2:15 PM26 °FSunny.16 mph47%30.24 "Hg10 mi
1:55 PM25 °FSunny.17 mph48%30.24 "Hg10 mi
1:35 PM25 °FSunny.16 mph50%30.24 "Hg10 mi
1:15 PM24 °FSunny.15 mph50%30.25 "Hg10 mi
12:55 PM24 °FSunny.16 mph50%30.25 "Hg10 mi
12:35 PM24 °FSunny.12 mph52%30.26 "Hg10 mi
12:15 PM23 °FSunny.14 mph51%30.26 "Hg10 mi
11:55 AM23 °FSunny.10 mph52%30.27 "Hg10 mi
11:35 AM22 °FSunny.12 mph53%30.27 "Hg10 mi
11:15 AM22 °FSunny.13 mph56%30.27 "Hg10 mi
10:55 AM22 °FSunny.13 mph57%30.27 "Hg10 mi
10:35 AM21 °FScattered clouds.14 mph63%30.27 "Hg10 mi
10:15 AM20 °FPartly sunny.13 mph71%30.27 "Hg10 mi
9:15 AM18 °FLight snow. Overcast.12 mph79%30.26 "Hg5 mi
8:55 AM18 °FLight snow. Overcast.9 mph83%30.25 "Hg2 mi
8:35 AM18 °FOvercast.10 mph84%30.25 "Hg10 mi
8:15 AM17 °FLight snow. Overcast.7 mph85%30.24 "Hg5 mi
7:55 AM17 °FLight snow. Overcast.6 mph85%30.23 "Hg10 mi
7:35 AM17 °FOvercast.7 mph86%30.23 "Hg10 mi
7:15 AM16 °FOvercast.6 mph86%30.23 "Hg10 mi
Weather by CustomWeather, © 2015

See weather overviewHow to use our weather pages